Home > Weather > Dover > Past weeks

Flag for U.S.A. Weather for the Past 2 Weeks in Dover, Delaware, U.S.A.

Now
27 °F

Scattered clouds.


Feels Like: 13 °F
Forecast: 21 / 27 °F
Wind: 18 mph from Northwest

Location: Dover Air Force Base

Current Time: Feb 11, 2016 at 4:45:58 PM

Latest Report: Feb 11, 2016 at 3:58 PM


Visibility: 10 mi

Pressure: 30.09 "Hg

Humidity: 40%

Dew point: 5 °F

Location of DoverLocation

Historic Weather in Dover — Graph

°F

Dover Temperature Yesterday

Maximum temperature yesterday: 36 °F (at 1:58 PM)
Minimum temperature yesterday: 27 °F (at 11:58 PM)
Average temperature yesterday: 32 °F

High & Low Weather Summary for the Past Weeks

 TemperatureHumidityPressure
High62 °F (Feb 1, 1:58 PM)100% (Jan 28, 4:58 AM)30.47 "Hg (Jan 28, 4:58 AM)
Low22 °F (Feb 11, 6:58 AM)40% (Feb 11, 2:58 PM)29.52 "Hg (Feb 9, 3:03 PM)
Average39 °F79%29.96 "Hg
* Reported Jan 27 2:59 PM — Feb 11 2:58 PM, Dover, Weather by CustomWeather, © 2016

Note: Actual official high and low records may vary slightly from our data, if they occured in-between our weather recording intervals... More about our weather records

Advertising

Dover Weather History for the Previous 24 Hours

 ConditionsComfort  
Time TempWeatherWind HumidityBarometerVisibility
2:58 PM
Thu, Feb 11
27 °FScattered clouds.21 mph40%30.06 "Hg10 mi
1:58 PM27 °FScattered clouds.20 mph44%30.05 "Hg10 mi
12:58 PM26 °FScattered clouds.25 mph42%30.05 "Hg10 mi
11:58 AM25 °FScattered clouds.24 mph46%30.06 "Hg10 mi
10:58 AM24 °FPartly sunny.21 mph45%30.07 "Hg10 mi
9:58 AM25 °FSunny.21 mph47%30.06 "Hg10 mi
8:58 AM24 °FSunny.20 mph48%30.04 "Hg10 mi
7:58 AM23 °FSunny.16 mph52%30.03 "Hg10 mi
6:58 AM22 °FSunny.14 mph54%30.00 "Hg10 mi
5:58 AM23 °FClear.15 mph55%29.97 "Hg10 mi
4:58 AM24 °FClear.18 mph56%29.94 "Hg10 mi
3:58 AM24 °FClear.14 mph55%29.92 "Hg10 mi
2:58 AM25 °FPassing clouds.18 mph56%29.91 "Hg10 mi
1:58 AM26 °FPassing clouds.17 mph57%29.90 "Hg10 mi
12:58 AM26 °FPassing clouds.15 mph56%29.90 "Hg10 mi
11:58 PM
Wed, Feb 10
27 °FPassing clouds.13 mph58%29.89 "Hg10 mi
10:58 PM28 °FMostly cloudy.17 mph57%29.88 "Hg10 mi
9:58 PM30 °FMostly cloudy.18 mph55%29.86 "Hg10 mi
9:03 PM30 °FLight snow. Passing clouds.18 mph59%29.83 "Hg10 mi
8:58 PM31 °FPartly cloudy.18 mph56%29.84 "Hg10 mi
7:58 PM31 °FPassing clouds.8 mph60%29.83 "Hg10 mi
6:59 PM32 °FClear.12 mph55%29.81 "Hg10 mi
5:58 PM33 °FPassing clouds.15 mph56%29.80 "Hg10 mi
4:58 PM34 °FOvercast.14 mph57%29.79 "Hg10 mi
Weather by CustomWeather, © 2016

See weather overviewHow to use our weather pages